status,avgMeasuredTime,avgSpeed,extID,medianMeasuredTime,TIMESTAMP,vehicleCount,_id,REPORT_ID
OK,96,49,813,96,2014-08-01T07:55:00,5,20746537,198031
OK,96,49,813,96,2014-08-01T08:00:00,5,20746868,198031
OK,88,53,813,88,2014-08-01T08:05:00,3,20747317,198031
OK,88,53,813,88,2014-08-01T08:10:00,5,20747690,198031
OK,92,51,813,92,2014-08-01T08:15:00,7,20748139,198031
OK,94,50,813,94,2014-08-01T08:20:00,7,20748588,198031
OK,81,58,813,81,2014-08-01T08:25:00,4,20749037,198031
OK,152,31,813,152,2014-08-01T08:30:00,2,20749486,198031
OK,86,55,813,86,2014-08-01T08:35:00,9,20749935,198031
OK,86,55,813,86,2014-08-01T08:40:00,12,20750384,198031
OK,86,55,813,86,2014-08-01T08:45:00,5,20750833,198031
OK,93,51,813,93,2014-08-01T08:50:00,7,20751282,198031
OK,93,51,813,93,2014-08-01T08:55:00,7,20751731,198031
OK,91,52,813,91,2014-08-01T09:00:00,5,20752180,198031
OK,91,52,813,91,2014-08-01T09:05:00,7,20752629,198031
OK,91,52,813,91,2014-08-01T09:10:00,7,20753078,198031
OK,92,51,813,92,2014-08-01T09:15:00,8,20753527,198031
OK,81,58,813,81,2014-08-01T09:20:00,8,20753976,198031
OK,89,53,813,89,2014-08-01T09:25:00,8,20754425,198031
OK,104,45,813,104,2014-08-01T09:30:00,11,20754874,198031
OK,82,57,813,82,2014-08-01T09:35:00,9,20755323,198031
OK,79,60,813,79,2014-08-01T09:40:00,3,20755772,198031
OK,83,57,813,83,2014-08-01T09:45:00,4,20756221,198031
OK,83,57,813,83,2014-08-01T09:50:00,6,20756670,198031
OK,92,51,813,92,2014-08-01T09:55:00,4,20757119,198031
OK,90,52,813,90,2014-08-01T10:00:00,7,20757568,198031
OK,86,55,813,86,2014-08-01T10:05:00,5,20758017,198031
OK,83,57,813,83,2014-08-01T10:10:00,6,20758466,198031
OK,83,57,813,83,2014-08-01T10:15:00,6,20758915,198031
OK,86,55,813,86,2014-08-01T10:20:00,4,20759364,198031
OK,96,49,813,96,2014-08-01T10:25:00,8,20759813,198031
OK,94,50,813,94,2014-08-01T10:30:00,11,20760262,198031
OK,87,54,813,87,2014-08-01T10:35:00,7,20760711,198031
OK,91,52,813,91,2014-08-01T10:40:00,4,20761160,198031
OK,102,46,813,102,2014-08-01T10:45:00,5,20761609,198031
OK,84,56,813,84,2014-08-01T10:50:00,3,20762058,198031
OK,84,56,813,84,2014-08-01T10:55:00,5,20762507,198031
OK,90,52,813,90,2014-08-01T11:00:00,5,20762956,198031
OK,93,51,813,93,2014-08-01T11:05:00,7,20763405,198031
OK,115,41,813,115,2014-08-01T11:10:00,5,20763854,198031
OK,97,48,813,97,2014-08-01T11:15:00,7,20764302,198031
OK,79,60,813,79,2014-08-01T11:20:00,5,20764751,198031
OK,96,49,813,96,2014-08-01T11:25:00,5,20765200,198031
OK,97,48,813,97,2014-08-01T11:30:00,10,20765649,198031
OK,96,49,813,96,2014-08-01T11:35:00,9,20766098,198031
OK,96,49,813,96,2014-08-01T11:40:00,6,20766547,198031
OK,80,59,813,80,2014-08-01T11:45:00,8,20766996,198031
OK,81,58,813,81,2014-08-01T11:50:00,11,20767445,198031
OK,110,43,813,110,2014-08-01T11:55:00,5,20767894,198031
OK,103,46,813,103,2014-08-01T12:00:00,7,20768343,198031
OK,92,51,813,92,2014-08-01T12:05:00,4,20768792,198031
OK,87,54,813,87,2014-08-01T12:10:00,3,20769241,198031
OK,106,44,813,106,2014-08-01T12:15:00,5,20769690,198031
OK,106,44,813,106,2014-08-01T12:20:00,4,20770139,198031
OK,106,44,813,106,2014-08-01T12:25:00,9,20770588,198031
OK,102,46,813,102,2014-08-01T12:30:00,12,20771037,198031
OK,92,51,813,92,2014-08-01T12:35:00,12,20771486,198031
OK,89,53,813,89,2014-08-01T12:40:00,15,20771935,198031
OK,108,43,813,108,2014-08-01T12:45:00,10,20772384,198031
OK,114,41,813,114,2014-08-01T12:50:00,5,20772833,198031
OK,99,47,813,99,2014-08-01T12:55:00,12,20773282,198031
OK,100,47,813,100,2014-08-01T13:00:00,13,20773731,198031
OK,101,46,813,101,2014-08-01T13:05:00,11,20774180,198031
OK,107,44,813,107,2014-08-01T13:10:00,9,20774629,198031
OK,97,48,813,97,2014-08-01T13:15:00,13,20775078,198031
OK,113,41,813,113,2014-08-01T13:20:00,16,20775527,198031
OK,111,42,813,111,2014-08-01T13:25:00,10,20775976,198031
OK,89,53,813,89,2014-08-01T13:30:00,7,20776425,198031
OK,87,54,813,87,2014-08-01T13:35:00,6,20776874,198031
OK,90,52,813,90,2014-08-01T13:40:00,6,20777323,198031
OK,81,58,813,81,2014-08-01T13:45:00,10,20777772,198031
OK,81,58,813,81,2014-08-01T13:50:00,10,20778221,198031
OK,100,47,813,100,2014-08-01T13:55:00,9,20778670,198031
OK,103,46,813,103,2014-08-01T14:00:00,9,20779119,198031
OK,102,46,813,102,2014-08-01T14:05:00,10,20779568,198031
OK,107,44,813,107,2014-08-01T14:10:00,11,20780017,198031
OK,99,47,813,99,2014-08-01T14:15:00,14,20780466,198031
OK,95,49,813,95,2014-08-01T14:20:00,13,20780915,198031
OK,113,41,813,113,2014-08-01T14:25:00,12,20781364,198031
OK,122,38,813,122,2014-08-01T14:30:00,9,20781813,198031
OK,157,30,813,157,2014-08-01T14:35:00,3,20782262,198031
OK,90,52,813,90,2014-08-01T14:40:00,9,20782711,198031
OK,90,52,813,90,2014-08-01T14:45:00,11,20783160,198031
OK,84,56,813,84,2014-08-01T14:50:00,8,20783609,198031
OK,86,55,813,86,2014-08-01T14:55:00,6,20784058,198031
OK,77,61,813,77,2014-08-01T15:00:00,7,20784507,198031
OK,90,52,813,90,2014-08-01T15:05:00,7,20784956,198031
OK,90,52,813,90,2014-08-01T15:10:00,7,20785405,198031
OK,91,52,813,91,2014-08-01T15:15:00,6,20785854,198031
OK,95,49,813,95,2014-08-01T15:20:00,2,20786303,198031
OK,82,57,813,82,2014-08-01T15:25:00,3,20786752,198031
OK,82,57,813,82,2014-08-01T15:30:00,4,20787201,198031
OK,85,55,813,85,2014-08-01T15:35:00,6,20787650,198031
OK,89,53,813,89,2014-08-01T15:40:00,6,20788099,198031
OK,98,48,813,98,2014-08-01T15:45:00,4,20788548,198031
OK,80,59,813,80,2014-08-01T15:50:00,5,20788997,198031
OK,92,51,813,92,2014-08-01T15:55:00,5,20789446,198031
OK,92,51,813,92,2014-08-01T16:00:00,3,20789895,198031
OK,86,55,813,86,2014-08-01T16:05:00,4,20790344,198031
OK,82,57,813,82,2014-08-01T16:10:00,6,20790793,198031
OK,84,56,813,84,2014-08-01T16:15:00,3,20791242,198031
OK,94,50,813,94,2014-08-01T16:20:00,1,20791691,198031
OK,71,66,813,71,2014-08-01T16:25:00,1,20792140,198031
OK,79,60,813,79,2014-08-01T16:30:00,4,20792589,198031
OK,76,62,813,76,2014-08-01T16:35:00,4,20793038,198031
OK,78,60,813,78,2014-08-01T16:40:00,3,20793487,198031
OK,81,58,813,81,2014-08-01T16:45:00,3,20793936,198031
OK,84,56,813,84,2014-08-01T16:50:00,2,20794385,198031
OK,88,53,813,88,2014-08-01T16:55:00,0,20794834,198031
OK,79,60,813,79,2014-08-01T17:00:00,1,20795283,198031
OK,79,60,813,79,2014-08-01T17:05:00,3,20795732,198031
OK,83,57,813,83,2014-08-01T17:10:00,2,20796181,198031
OK,78,60,813,78,2014-08-01T17:15:00,1,20796630,198031
OK,64,74,813,64,2014-08-01T17:20:00,1,20797079,198031
OK,70,67,813,70,2014-08-01T17:25:00,2,20797528,198031
OK,76,62,813,76,2014-08-01T17:30:00,1,20797977,198031
OK,100,47,813,100,2014-08-01T17:35:00,1,20798426,198031
OK,100,47,813,100,2014-08-01T17:40:00,0,20798875,198031
OK,85,55,813,85,2014-08-01T17:45:00,3,20799324,198031
OK,85,55,813,85,2014-08-01T17:50:00,3,20799773,198031
OK,89,53,813,89,2014-08-01T17:55:00,1,20800222,198031
OK,82,57,813,82,2014-08-01T18:00:00,2,20800671,198031
OK,83,57,813,83,2014-08-01T18:05:00,8,20801120,198031
OK,83,57,813,83,2014-08-01T18:10:00,6,20801569,198031
OK,91,52,813,91,2014-08-01T18:15:00,1,20802018,198031
OK,82,57,813,82,2014-08-01T18:20:00,3,20802467,198031
OK,86,55,813,86,2014-08-01T18:25:00,2,20802916,198031
OK,76,62,813,76,2014-08-01T18:30:00,3,20803365,198031
OK,71,66,813,71,2014-08-01T18:35:00,3,20803814,198031
OK,79,60,813,79,2014-08-01T18:40:00,3,20804263,198031
OK,83,57,813,83,2014-08-01T18:45:00,2,20804712,198031
OK,87,54,813,87,2014-08-01T18:50:00,0,20805161,198031
OK,73,64,813,73,2014-08-01T18:55:00,3,20805610,198031
OK,75,63,813,75,2014-08-01T19:00:00,2,20806059,198031
OK,78,60,813,78,2014-08-01T19:05:00,1,20806508,198031
OK,85,55,813,85,2014-08-01T19:10:00,1,20806957,198031
OK,85,55,813,85,2014-08-01T19:15:00,1,20807406,198031
OK,77,61,813,77,2014-08-01T19:20:00,1,20807855,198031
OK,82,57,813,82,2014-08-01T19:25:00,3,20808304,198031
OK,96,49,813,96,2014-08-01T19:30:00,3,20808753,198031
OK,96,49,813,96,2014-08-01T19:35:00,1,20809202,198031
OK,135,35,813,135,2014-08-01T19:40:00,1,20809651,198031
OK,135,35,813,135,2014-08-01T19:45:00,1,20810100,198031
OK,135,35,813,135,2014-08-01T19:50:00,0,20810549,198031
OK,135,35,813,135,2014-08-01T19:55:00,0,20810998,198031
OK,81,58,813,81,2014-08-01T22:00:00,0,20816727,198031
OK,81,58,813,81,2014-08-01T22:05:00,0,20817176,198031
OK,85,55,813,85,2014-08-02T00:00:00,0,20823166,198031
OK,85,55,813,85,2014-08-02T00:05:00,0,20823615,198031
OK,85,55,813,85,2014-08-02T00:10:00,0,20824064,198031
OK,85,55,813,85,2014-08-02T00:15:00,0,20824513,198031
OK,78,60,813,78,2014-08-02T00:20:00,1,20824962,198031
OK,78,60,813,78,2014-08-02T00:25:00,0,20825411,198031
OK,78,60,813,78,2014-08-02T00:30:00,0,20825860,198031
OK,78,60,813,78,2014-08-02T00:35:00,0,20826309,198031
OK,80,59,813,80,2014-08-02T00:40:00,1,20826758,198031
OK,84,56,813,84,2014-08-02T00:45:00,1,20827207,198031
OK,84,56,813,84,2014-08-02T00:50:00,0,20827656,198031
OK,84,56,813,84,2014-08-02T00:55:00,0,20828105,198031
OK,84,56,813,84,2014-08-02T01:00:00,0,20828554,198031
OK,84,56,813,84,2014-08-02T01:05:00,0,20829003,198031
OK,84,56,813,84,2014-08-02T01:10:00,0,20829452,198031
OK,84,56,813,84,2014-08-02T01:15:00,0,20829901,198031
OK,84,56,813,84,2014-08-02T01:20:00,0,20830350,198031
OK,76,62,813,76,2014-08-02T01:25:00,1,20830799,198031
OK,76,62,813,76,2014-08-02T01:30:00,0,20831248,198031
OK,77,61,813,77,2014-08-02T01:35:00,1,20831697,198031
OK,66,71,813,66,2014-08-02T01:40:00,1,20832146,198031
OK,66,71,813,66,2014-08-02T01:45:00,1,20832595,198031
OK,66,71,813,66,2014-08-02T01:50:00,0,20833044,198031
OK,66,71,813,66,2014-08-02T01:55:00,0,20833493,198031
OK,66,71,813,66,2014-08-02T02:00:00,0,20833942,198031
OK,66,71,813,66,2014-08-02T02:05:00,0,20834391,198031
OK,66,71,813,66,2014-08-02T02:10:00,0,20834840,198031
OK,66,71,813,66,2014-08-02T02:15:00,0,20835289,198031
OK,66,71,813,66,2014-08-02T02:20:00,0,20835738,198031
OK,66,71,813,66,2014-08-02T02:25:00,0,20836187,198031
OK,66,71,813,66,2014-08-02T02:30:00,0,20836636,198031
OK,66,71,813,66,2014-08-02T02:35:00,0,20837085,198031
OK,72,65,813,72,2014-08-02T02:40:00,1,20837534,198031
OK,72,65,813,72,2014-08-02T02:45:00,0,20837983,198031
OK,72,65,813,72,2014-08-02T02:50:00,0,20838432,198031
OK,72,65,813,72,2014-08-02T02:55:00,0,20838881,198031
OK,72,65,813,72,2014-08-02T03:00:00,0,20839330,198031
OK,69,68,813,69,2014-08-02T03:05:00,1,20839779,198031
OK,74,64,813,74,2014-08-02T03:10:00,2,20840228,198031
OK,79,60,813,79,2014-08-02T03:15:00,0,20840677,198031
OK,79,60,813,79,2014-08-02T03:20:00,0,20841126,198031
OK,79,60,813,79,2014-08-02T03:25:00,0,20841575,198031
OK,79,60,813,79,2014-08-02T03:30:00,0,20842024,198031
OK,79,60,813,79,2014-08-02T03:35:00,0,20842473,198031
OK,79,60,813,79,2014-08-02T03:40:00,0,20842922,198031
OK,79,60,813,79,2014-08-02T03:45:00,0,20843371,198031
OK,79,60,813,79,2014-08-02T03:50:00,0,20843820,198031
OK,79,60,813,79,2014-08-02T03:55:00,0,20844269,198031
OK,80,59,813,80,2014-08-02T04:20:00,0,20845715,198031
OK,80,59,813,80,2014-08-02T04:25:00,0,20846271,198031
OK,80,59,813,80,2014-08-02T04:35:00,0,20846638,198031
OK,67,70,813,67,2014-08-02T04:45:00,1,20847280,198031
OK,67,70,813,67,2014-08-02T04:50:00,0,20847646,198031
OK,89,53,813,89,2014-08-02T05:40:00,3,20850507,198031
OK,70,67,813,70,2014-08-02T05:50:00,2,20851166,198031
OK,88,53,813,88,2014-08-02T06:00:00,3,20851723,198031
OK,107,44,813,107,2014-08-02T06:05:00,1,20852172,198031
OK,107,44,813,107,2014-08-02T06:10:00,0,20852621,198031
OK,84,56,813,84,2014-08-02T06:15:00,1,20853070,198031
OK,84,56,813,84,2014-08-02T06:20:00,0,20853519,198031
OK,84,56,813,84,2014-08-02T06:25:00,0,20853968,198031
OK,84,56,813,84,2014-08-02T06:30:00,0,20854417,198031
OK,75,63,813,75,2014-08-02T06:35:00,1,20854866,198031
OK,83,57,813,83,2014-08-02T06:40:00,4,20855315,198031
OK,82,57,813,82,2014-08-02T06:45:00,3,20855764,198031
OK,71,66,813,71,2014-08-02T06:50:00,2,20856213,198031
OK,70,67,813,70,2014-08-02T06:55:00,1,20856662,198031
OK,70,67,813,70,2014-08-02T07:00:00,0,20857111,198031
OK,70,67,813,70,2014-08-02T07:05:00,0,20857560,198031
OK,97,48,813,97,2014-08-02T07:10:00,1,20858009,198031
OK,103,46,813,103,2014-08-02T07:15:00,2,20858458,198031
OK,96,49,813,96,2014-08-02T07:20:00,3,20858907,198031
OK,87,54,813,87,2014-08-02T07:25:00,0,20859356,198031
OK,87,54,813,87,2014-08-02T07:30:00,0,20859805,198031
OK,78,60,813,78,2014-08-02T07:35:00,1,20860254,198031
OK,78,60,813,78,2014-08-02T07:40:00,1,20860703,198031
OK,90,52,813,90,2014-08-02T07:45:00,2,20861152,198031
OK,78,60,813,78,2014-08-02T07:50:00,3,20861601,198031
OK,72,65,813,72,2014-08-02T07:55:00,2,20862050,198031
OK,94,50,813,94,2014-08-02T08:00:00,1,20862499,198031
OK,94,50,813,94,2014-08-02T08:05:00,1,20862948,198031
OK,94,50,813,94,2014-08-02T08:10:00,0,20863397,198031
OK,94,50,813,94,2014-08-02T08:15:00,0,20863846,198031
OK,90,52,813,90,2014-08-02T08:20:00,3,20864295,198031
OK,87,54,813,87,2014-08-02T08:25:00,4,20864744,198031
OK,98,48,813,98,2014-08-02T08:30:00,7,20865193,198031
OK,89,53,813,89,2014-08-02T08:35:00,5,20865642,198031
OK,89,53,813,89,2014-08-02T08:40:00,4,20866091,198031
OK,102,46,813,102,2014-08-02T08:45:00,3,20866540,198031
OK,91,52,813,91,2014-08-02T08:50:00,4,20866989,198031
OK,91,52,813,91,2014-08-02T08:55:00,4,20867438,198031
OK,73,64,813,73,2014-08-02T09:00:00,2,20867887,198031
OK,76,62,813,76,2014-08-02T09:05:00,1,20868336,198031
OK,69,68,813,69,2014-08-02T09:10:00,1,20868785,198031
OK,69,68,813,69,2014-08-02T09:15:00,0,20869234,198031
OK,77,61,813,77,2014-08-02T09:20:00,4,20869683,198031
OK,87,54,813,87,2014-08-02T09:25:00,8,20870132,198031
OK,96,49,813,96,2014-08-02T09:30:00,7,20870581,198031
OK,79,60,813,79,2014-08-02T09:35:00,8,20871030,198031
OK,74,64,813,74,2014-08-02T09:40:00,6,20871479,198031
OK,97,48,813,97,2014-08-02T09:45:00,1,20871928,198031
OK,93,51,813,93,2014-08-02T09:50:00,3,20872377,198031
OK,116,40,813,116,2014-08-02T09:55:00,5,20872826,198031
OK,95,49,813,95,2014-08-02T10:00:00,7,20873275,198031
OK,87,54,813,87,2014-08-02T10:05:00,10,20873724,198031
OK,92,51,813,92,2014-08-02T10:10:00,7,20874173,198031
OK,84,56,813,84,2014-08-02T10:15:00,4,20874622,198031
OK,72,65,813,72,2014-08-02T10:20:00,5,20875071,198031
OK,83,57,813,83,2014-08-02T10:25:00,4,20875520,198031
OK,90,52,813,90,2014-08-02T10:30:00,5,20875969,198031
OK,88,53,813,88,2014-08-02T10:35:00,8,20876418,198031
OK,96,49,813,96,2014-08-02T10:40:00,8,20876867,198031
OK,107,44,813,107,2014-08-02T10:45:00,6,20877316,198031
OK,93,51,813,93,2014-08-02T10:50:00,5,20877765,198031
OK,93,51,813,93,2014-08-02T10:55:00,5,20878214,198031
OK,92,51,813,92,2014-08-02T11:00:00,3,20878663,198031
OK,84,56,813,84,2014-08-02T11:05:00,1,20879112,198031
OK,86,55,813,86,2014-08-02T11:10:00,2,20879561,198031
OK,93,51,813,93,2014-08-02T11:15:00,2,20880010,198031
OK,100,47,813,100,2014-08-02T11:20:00,3,20880459,198031
OK,84,56,813,84,2014-08-02T11:25:00,6,20880908,198031
OK,84,56,813,84,2014-08-02T11:30:00,7,20881357,198031
OK,84,56,813,84,2014-08-02T11:35:00,5,20881806,198031
OK,88,53,813,88,2014-08-02T11:40:00,3,20882255,198031
OK,89,53,813,89,2014-08-02T11:45:00,3,20882704,198031
OK,89,53,813,89,2014-08-02T11:50:00,6,20883153,198031
OK,89,53,813,89,2014-08-02T11:55:00,7,20883602,198031
OK,77,61,813,77,2014-08-02T12:00:00,5,20884051,198031
OK,84,56,813,84,2014-08-02T12:05:00,7,20884500,198031
OK,87,54,813,87,2014-08-02T12:10:00,6,20884949,198031
OK,89,53,813,89,2014-08-02T12:15:00,7,20885398,198031
OK,80,59,813,80,2014-08-02T12:20:00,9,20885847,198031
OK,72,65,813,72,2014-08-02T12:25:00,9,20886296,198031
OK,83,57,813,83,2014-08-02T12:30:00,4,20886745,198031
OK,84,56,813,84,2014-08-02T12:35:00,2,20887194,198031
OK,93,51,813,93,2014-08-02T12:40:00,3,20887643,198031
OK,92,51,813,92,2014-08-02T12:45:00,4,20888092,198031
OK,85,55,813,85,2014-08-02T12:50:00,4,20888541,198031
OK,86,55,813,86,2014-08-02T12:55:00,6,20888990,198031
OK,87,54,813,87,2014-08-02T13:00:00,4,20889439,198031
OK,84,56,813,84,2014-08-02T13:05:00,7,20889888,198031
OK,79,60,813,79,2014-08-02T13:10:00,5,20890337,198031
OK,72,65,813,72,2014-08-02T13:15:00,3,20890786,198031
OK,76,62,813,76,2014-08-02T13:20:00,3,20891235,198031
OK,87,54,813,87,2014-08-02T13:25:00,6,20891684,198031
OK,88,53,813,88,2014-08-02T13:30:00,5,20892133,198031
OK,98,48,813,98,2014-08-02T13:35:00,2,20892582,198031
OK,85,55,813,85,2014-08-02T13:40:00,4,20893031,198031
OK,109,43,813,109,2014-08-02T13:45:00,2,20893480,198031
OK,109,43,813,109,2014-08-02T13:50:00,2,20893929,198031
OK,80,59,813,80,2014-08-02T13:55:00,2,20894378,198031
OK,81,58,813,81,2014-08-02T14:00:00,3,20894827,198031
OK,81,58,813,81,2014-08-02T14:05:00,2,20895276,198031
OK,93,51,813,93,2014-08-02T14:10:00,1,20895725,198031
OK,97,48,813,97,2014-08-02T14:15:00,1,20896174,198031
OK,74,64,813,74,2014-08-02T14:20:00,2,20896623,198031
OK,76,62,813,76,2014-08-02T14:25:00,3,20897072,198031
OK,76,62,813,76,2014-08-02T14:30:00,7,20897521,198031
OK,85,55,813,85,2014-08-02T14:35:00,6,20897970,198031
OK,82,57,813,82,2014-08-02T14:40:00,3,20898419,198031
OK,82,57,813,82,2014-08-02T14:45:00,5,20898868,198031
OK,75,63,813,75,2014-08-02T14:50:00,6,20899317,198031
OK,76,62,813,76,2014-08-02T14:55:00,5,20899766,198031
OK,76,62,813,76,2014-08-02T15:00:00,5,20900215,198031
OK,62,76,813,62,2014-08-02T15:05:00,3,20900664,198031
OK,87,54,813,87,2014-08-02T15:10:00,1,20901113,198031
OK,78,60,813,78,2014-08-02T15:15:00,2,20901562,198031
OK,70,67,813,70,2014-08-02T15:20:00,3,20902011,198031
OK,95,49,813,95,2014-08-02T15:25:00,3,20902460,198031
OK,95,49,813,95,2014-08-02T15:30:00,3,20902909,198031
OK,82,57,813,82,2014-08-02T15:35:00,1,20903358,198031
OK,79,60,813,79,2014-08-02T15:40:00,2,20903807,198031
OK,79,60,813,79,2014-08-02T15:45:00,2,20904256,198031
OK,95,49,813,95,2014-08-02T15:50:00,5,20904705,198031
OK,76,62,813,76,2014-08-02T15:55:00,2,20905154,198031
OK,74,64,813,74,2014-08-02T16:00:00,2,20905603,198031
OK,87,54,813,87,2014-08-02T16:05:00,3,20906052,198031
OK,89,53,813,89,2014-08-02T16:10:00,2,20906501,198031
OK,104,45,813,104,2014-08-02T16:15:00,1,20906950,198031
OK,84,56,813,84,2014-08-02T16:20:00,2,20907399,198031
OK,73,64,813,73,2014-08-02T16:25:00,4,20907848,198031
OK,73,64,813,73,2014-08-02T16:30:00,4,20908297,198031
OK,70,67,813,70,2014-08-02T16:35:00,0,20908746,198031
OK,75,63,813,75,2014-08-02T16:40:00,2,20909195,198031
OK,75,63,813,75,2014-08-02T16:45:00,3,20909644,198031
OK,81,58,813,81,2014-08-02T16:50:00,3,20910093,198031
OK,79,60,813,79,2014-08-02T16:55:00,6,20910542,198031
OK,79,60,813,79,2014-08-02T17:00:00,3,20910991,198031
OK,87,54,813,87,2014-08-02T17:05:00,2,20911440,198031
OK,88,53,813,88,2014-08-02T17:10:00,2,20911889,198031
OK,88,53,813,88,2014-08-02T17:15:00,0,20912338,198031
OK,88,53,813,88,2014-08-02T17:20:00,0,20912787,198031
OK,78,60,813,78,2014-08-02T17:25:00,1,20913236,198031
OK,61,77,813,61,2014-08-02T17:30:00,1,20913685,198031
OK,61,77,813,61,2014-08-02T17:35:00,1,20914134,198031
OK,85,55,813,85,2014-08-02T17:40:00,2,20914583,198031
OK,89,53,813,89,2014-08-02T17:45:00,2,20915032,198031
OK,88,53,813,88,2014-08-02T17:50:00,3,20915481,198031
OK,84,56,813,84,2014-08-02T17:55:00,4,20915930,198031
OK,79,60,813,79,2014-08-02T18:00:00,2,20916379,198031
OK,80,59,813,80,2014-08-02T18:05:00,0,20916828,198031
OK,70,67,813,70,2014-08-02T18:10:00,2,20917277,198031
OK,70,67,813,70,2014-08-02T18:15:00,2,20917726,198031
OK,71,66,813,71,2014-08-02T18:20:00,2,20918175,198031
OK,70,67,813,70,2014-08-02T18:25:00,3,20918624,198031
OK,70,67,813,70,2014-08-02T18:30:00,3,20919073,198031
OK,70,67,813,70,2014-08-02T18:35:00,0,20919522,198031
OK,70,67,813,70,2014-08-02T18:40:00,0,20919971,198031
OK,70,67,813,70,2014-08-02T18:45:00,0,20920420,198031
OK,73,64,813,73,2014-08-02T18:50:00,2,20920869,198031
OK,73,64,813,73,2014-08-02T18:55:00,2,20921318,198031
OK,62,76,813,62,2014-08-02T19:00:00,1,20921767,198031
OK,62,76,813,62,2014-08-02T19:05:00,0,20922216,198031
OK,62,76,813,62,2014-08-02T19:10:00,0,20922665,198031
OK,103,46,813,103,2014-08-02T19:15:00,1,20923114,198031
OK,73,64,813,73,2014-08-02T19:20:00,3,20923563,198031
OK,72,65,813,72,2014-08-02T19:25:00,3,20924012,198031
OK,71,66,813,71,2014-08-02T19:30:00,3,20924461,198031
OK,166,28,813,166,2014-08-02T19:35:00,1,20924910,198031
OK,166,28,813,166,2014-08-02T19:40:00,0,20925359,198031
OK,166,28,813,166,2014-08-02T19:45:00,0,20925808,198031
OK,166,28,813,166,2014-08-02T19:50:00,0,20926257,198031
OK,166,28,813,166,2014-08-02T19:55:00,0,20926706,198031
OK,78,60,813,78,2014-08-02T20:00:00,2,20927155,198031
OK,85,55,813,85,2014-08-02T20:05:00,1,20927604,198031
OK,83,57,813,83,2014-08-02T20:10:00,2,20928053,198031
OK,91,52,813,91,2014-08-02T20:15:00,3,20928502,198031
OK,100,47,813,100,2014-08-02T20:20:00,1,20928951,198031
OK,100,47,813,100,2014-08-02T20:25:00,0,20929400,198031
OK,100,47,813,100,2014-08-02T20:30:00,0,20929849,198031
OK,87,54,813,87,2014-08-02T20:35:00,1,20930298,198031
OK,87,54,813,87,2014-08-02T20:40:00,1,20930747,198031
OK,87,54,813,87,2014-08-02T20:45:00,0,20931196,198031
OK,59,80,813,59,2014-08-02T20:50:00,1,20931645,198031
OK,72,65,813,72,2014-08-02T20:55:00,2,20932094,198031
OK,84,56,813,84,2014-08-02T21:00:00,1,20932543,198031
OK,69,68,813,69,2014-08-02T21:05:00,1,20932992,198031
OK,69,68,813,69,2014-08-02T21:10:00,0,20933441,198031
OK,81,58,813,81,2014-08-02T21:15:00,2,20933890,198031
OK,81,58,813,81,2014-08-02T21:20:00,2,20934339,198031
OK,82,57,813,82,2014-08-02T21:25:00,1,20934788,198031
OK,74,64,813,74,2014-08-02T21:30:00,2,20935237,198031
OK,67,70,813,67,2014-08-02T21:35:00,0,20935686,198031
OK,90,52,813,90,2014-08-02T21:40:00,2,20936135,198031
OK,97,48,813,97,2014-08-02T21:45:00,1,20936584,198031
OK,97,48,813,97,2014-08-02T21:50:00,0,20937033,198031
OK,97,48,813,97,2014-08-02T21:55:00,0,20937482,198031
OK,97,48,813,97,2014-08-02T22:00:00,0,20937931,198031
OK,97,48,813,97,2014-08-02T22:05:00,0,20938380,198031
OK,78,60,813,78,2014-08-02T22:10:00,2,20938829,198031
OK,74,64,813,74,2014-08-02T22:15:00,1,20939278,198031
OK,74,64,813,74,2014-08-02T22:20:00,0,20939727,198031
OK,105,45,813,105,2014-08-02T22:25:00,1,20940176,198031
OK,105,45,813,105,2014-08-02T22:30:00,0,20940625,198031
OK,75,63,813,75,2014-08-02T22:35:00,2,20941074,198031
OK,75,63,813,75,2014-08-02T22:40:00,0,20941523,198031
OK,75,63,813,75,2014-08-02T22:45:00,0,20941972,198031
OK,71,66,813,71,2014-08-02T22:50:00,1,20942421,198031
OK,108,43,813,108,2014-08-02T22:55:00,3,20942870,198031
OK,108,43,813,108,2014-08-02T23:00:00,3,20943319,198031
OK,72,65,813,72,2014-08-02T23:10:00,0,20943768,198031
OK,72,65,813,72,2014-08-02T23:15:00,0,20944217,198031
OK,85,55,813,85,2014-08-02T23:20:00,2,20944666,198031
OK,73,64,813,73,2014-08-02T23:25:00,4,20945115,198031
OK,62,76,813,62,2014-08-02T23:30:00,0,20945564,198031
OK,62,76,813,62,2014-08-02T23:35:00,0,20946013,198031
OK,82,57,813,82,2014-08-02T23:40:00,1,20946462,198031
OK,77,61,813,77,2014-08-02T23:45:00,1,20946911,198031
OK,71,66,813,71,2014-08-02T23:50:00,2,20947360,198031
OK,75,63,813,75,2014-08-02T23:55:00,2,20947809,198031
OK,85,55,813,85,2014-08-03T00:00:00,0,20948258,198031
OK,81,58,813,81,2014-08-03T00:05:00,1,20948707,198031
OK,82,57,813,82,2014-08-03T00:10:00,2,20949156,198031
OK,82,57,813,82,2014-08-03T00:15:00,2,20949604,198031
OK,82,57,813,82,2014-08-03T00:20:00,0,20950053,198031
OK,76,62,813,76,2014-08-03T00:25:00,1,20950502,198031
OK,76,62,813,76,2014-08-03T00:30:00,0,20950951,198031
OK,76,62,813,76,2014-08-03T00:35:00,0,20951400,198031
OK,76,62,813,76,2014-08-03T00:40:00,0,20951849,198031
OK,54,87,813,54,2014-08-03T00:45:00,1,20952298,198031
OK,54,87,813,54,2014-08-03T00:50:00,0,20952747,198031
OK,54,87,813,54,2014-08-03T00:55:00,0,20953196,198031
OK,54,87,813,54,2014-08-03T01:00:00,0,20953645,198031
OK,69,68,813,69,2014-08-03T01:05:00,2,20954094,198031
OK,65,72,813,65,2014-08-03T01:10:00,1,20954543,198031